Location: Hawaiian Village Mobile Home Park
(32.8359°N, 116.9792°W)
Time: 05:23:54
(UTC+00:00)

Daily predictions for brighter satellites

Satellite Brightness Start Highest point End
(mag) Time Altitude Azimuth Time Altitude Azimuth Time Altitude Azimuth
USA 229 DEB 4.1 02:47:33 10° NNW 02:55:03 72° ENE 03:02:51 10° SE
USA 229 4.1 02:47:37 10° NNW 02:55:08 71° ENE 03:02:56 10° SE
SAR-Lupe-1 4.0 02:59:36 10° NNE 03:03:11 80° ESE 03:06:44 10° S
Cosmos 1763 Rocket 4.1 03:01:57 10° NNW 03:06:57 58° WSW 03:11:59 10° S
PEGASUS R/B 3.5 03:06:35 10° SSE 03:09:49 88° WSW 03:12:11 10° NNW
H-2A R/B 3.7 03:05:59 10° SSW 03:10:25 34° W 03:14:53 10° NNW
Lacrosse 5 rocket 2.4 03:06:46 10° NW 03:10:55 47° SW 03:15:15 10° SSE
NOSS 3-1 (A) 4.3 03:05:39 10° NNW 03:13:43 87° ENE 03:22:46 10° SSE
SJ-6B 3.7 03:11:16 10° SE 03:14:37 30° ENE 03:18:02 10° NNE
Cosmos 841 Rocket 3.5 03:09:38 10° NNW 03:14:46 70° ENE 03:19:53 10° SSE
Cosmos 1553 Rocket 4.2 03:18:44 10° SSE 03:24:32 48° E 03:30:25 10° NNE
ASTRO E2 2.8 03:21:13 10° W 03:25:10 65° S 03:28:18 15° ESE
Cosmos 1606 3.0 03:22:37 10° SSE 03:26:10 43° E 03:29:46 10° NNE
Cosmos 1174 3.3 03:24:20 10° NNW 03:27:47 79° WSW 03:30:27 13° SSE
Cosmos 1603 3.7 03:22:29 10° NNW 03:28:10 88° WSW 03:33:46 10° SSE
GENESIS II 4.3 03:24:58 10° NNW 03:28:49 72° WSW 03:32:30 11° SSE
Cosmos 1842 Rocket 3.9 03:26:39 10° SSW 03:31:06 72° W 03:35:34 10° N
Helios 1A Rocket 3.1 03:28:59 10° S 03:33:05 74° W 03:37:13 10° NNW
Cosmos 1408 Rocket 3.5 03:29:40 10° N 03:34:05 85° E 03:38:31 10° S
Cosmos 921 Rocket 2.9 03:31:29 10° NNW 03:35:44 89° ENE 03:39:52 10° SSE
SL-4 R/B 3.9 03:36:47 10° NNW 03:40:22 23° NNE 03:43:23 13° E
Ariane Rocket 3.2 03:43:15 18° SE 03:46:49 50° ENE 03:51:42 10° N
USA 186 2.4 03:46:35 11° S 03:49:04 41° W 03:51:30 10° NNW
Cosmos 2278 Rocket 4.2 03:52:43 10° ENE 03:52:43 10° ENE 03:52:58 10° ENE
ERS-2 4.3 03:47:44 10° NNW 03:50:52 28° WNW 03:53:59 10° SW
Cosmos 1570 Rocket 4.1 03:45:55 10° NNW 03:51:09 75° WSW 03:55:52 12° S
Cosmos 1805 Rocket 4.3 03:48:04 10° NNE 03:52:00 33° E 03:53:21 27° ESE
FALCON 9 DEB 4.1 03:57:10 10° NNW 03:59:50 28° NE 04:00:16 27° ENE
Resurs 1-3 3.6 03:57:46 27° SSE 04:00:01 61° ENE 04:04:21 10° N
Cosmos 1844 Rocket 3.1 03:56:11 10° SSW 04:01:41 64° WNW 04:07:14 10° NNE
Cosmos 1814 Rocket 4.5 03:57:48 10° NNW 04:02:54 57° WSW 04:07:18 13° S
Cosmos 1354 Rocket 4.1 03:58:53 10° S 04:03:49 50° ESE 04:08:51 10° NNE
Cosmos 1943 4.3 04:00:12 10° NW 04:05:29 42° WSW 04:10:45 10° S
FALCON 9 DEB 3.7 04:03:11 10° NNW 04:06:00 35° NE 04:06:11 35° NE
Cosmos 1743 Rocket 3.5 04:01:52 10° N 04:06:12 81° W 04:09:01 21° S
GPS 2-04 Rocket1 2.9 04:03:15 10° SW 04:07:13 49° SSE 04:07:53 44° ESE
IGS 5A 4.2 04:06:44 31° E 04:07:16 32° ENE 04:10:59 10° N
SL-08 ROCKET BODY 4.2 04:01:38 10° N 04:07:33 84° E 04:11:52 19° S
OBJECT-B 2.2 04:07:09 16° SSW 04:09:20 36° W 04:12:22 10° NNW
Centaur D-1AR AC-36 3.3 04:08:58 10° SW 04:11:23 17° S 04:11:23 17° S
Delta 2 Rocket 4.5 04:07:31 10° SW 04:11:19 31° SSE 04:11:19 31° SSE
Intercosmos 25 Rocket 3.5 04:07:10 10° N 04:12:35 78° E 04:13:57 39° SSE
Cosmos 1242 Rocket 2.5 04:13:34 56° ESE 04:13:39 57° E 04:17:10 10° NNE
SPOT 3 Rocket 3.9 04:12:15 34° ESE 04:13:52 45° ENE 04:18:46 10° N
FALCON 9 DEB 4.0 04:12:34 10° NNW 04:15:11 32° NNE 04:15:11 32° NNE
Cosmos 1933 3.2 04:15:57 39° S 04:17:23 77° E 04:21:25 10° N
Cosmos 1500 Rocket 4.1 04:13:44 10° NNW 04:18:01 55° W 04:20:50 20° SSW
IRS-1A Rocket 4.5 04:17:16 20° S 04:21:17 72° WSW 04:27:07 10° NNW
Cosmos 1437 Rocket 4.2 04:21:11 10° SSW 04:24:42 36° WNW 04:28:19 10° N
Cosmos 1666 Rocket 4.4 04:22:10 10° NNE 04:25:45 34° ENE 04:25:45 34° ENE
Cosmos 1386 Rocket 4.3 04:25:07 10° N 04:31:11 85° E 04:33:59 35° S
ATLAS 5 CENTAUR R/B 3.5 04:26:22 10° N 04:31:37 32° NE 04:33:20 28° E
Cosmos 883 Rocket 4.4 04:29:08 27° S 04:32:43 77° E 04:39:03 10° N
Meteor 1-26 Rocket 4.1 04:33:45 35° S 04:36:15 77° E 04:41:52 10° NNE
Resurs 01 Rocket 1.5 04:37:29 64° S 04:38:11 85° WSW 04:42:38 10° NNW
Cosmos 1745 Rocket 4.0 04:33:04 10° N 04:39:15 80° W 04:42:08 34° S
IUS-7 SRM-1 4.2 04:24:02 10° W 04:39:47 46° SSW 04:40:39 42° S
Cosmos 1782 3.1 04:40:57 59° NNE 04:40:57 59° NNE 04:44:18 10° N
Cosmos 1709 Rocket 4.0 04:36:03 10° N 04:42:05 59° E 04:43:10 51° ESE
Sich 1 3.2 04:43:14 10° NNW 04:47:32 68° W 04:47:55 64° SW
USA 290 4.1 04:45:19 10° N 04:46:55 26° N 04:46:55 26° N
Cosmos 2315 Rocket 3.9 04:48:35 39° S 04:51:13 89° E 04:57:37 10° N
Spot 2 Rocket 3.9 04:55:07 48° ENE 04:55:07 48° ENE 04:59:34 10° N
NOSS 3-3 (A) 4.2 04:51:07 10° SW 04:56:35 61° WNW 05:02:42 10° NNE
NOSS 3-3 (C) 4.2 04:51:12 10° SW 04:56:41 61° WNW 05:02:49 10° NNE
X-37B 3.7 05:00:28 10° NNW 05:01:32 12° N 05:01:32 12° N
Cosmos 1151 Rocket 3.5 05:01:59 57° W 05:01:59 57° W 05:06:17 10° N
Meteor 2-17 Rocket 4.4 04:58:05 10° N 05:04:15 84° W 05:05:21 62° S
DELTA 2 R/B (1) 3.8 04:59:33 10° WNW 05:05:04 62° NNE 05:05:36 58° NE
SPOT 5 3.9 05:08:58 36° NE 05:08:58 36° NE 05:12:42 10° N
ERS-1 Rocket 3.9 05:10:48 38° NE 05:10:48 38° NE 05:14:26 10° N
COSMOS 2406 4.4 05:09:48 10° N 05:14:02 29° NE 05:14:02 29° NE
Terra 3.4 05:16:46 25° NE 05:16:46 25° NE 05:19:18 10° N
Cosmos 2082 Rocket 4.2 05:13:01 10° NNE 05:15:41 15° NE 05:15:41 15° NE
Cosmos 1777 Rocket 4.2 05:19:23 65° WNW 05:19:23 65° WNW 05:24:31 10° N
SL-4 R/B 3.4 05:15:46 10° NW 05:18:56 41° WNW 05:18:56 41° WNW
ARIANE 5 R/B 3.9 05:28:21 38° NNW 05:28:21 38° NNW 05:31:04 10° NNW
Cosmos 2278 Rocket 2.5 05:34:28 65° NW 05:34:28 65° NW 05:39:44 10° NNE
CZ-4C R/B 3.5 05:28:57 10° NNW 05:36:19 49° NE 05:37:11 47° ENE
Milstar 3 3.7 06:00:34 10° WSW 06:10:32 54° SW 06:10:32 54° SW
ATLAS 5 CENTAUR R/B 3.6 06:10:35 10° NW 06:14:52 37° W 06:14:52 37° W
SJ 16-02 3.9 06:19:53 18° NNW 06:19:53 18° NNW 06:21:30 10° N
Cosmos 1833 Rocket 4.1 06:20:56 10° NNW 06:24:11 35° NW 06:24:11 35° NW
NOSS 3-4 (A) 4.3 06:38:18 10° NNW 06:44:09 58° N 06:44:09 58° N
NOSS 3-4 (C) 4.3 06:38:24 10° NNW 06:44:16 58° N 06:44:16 58° N
ATLAS 2AS CENTAUR R/B 3.7 06:52:10 10° NNW 06:57:35 42° NNE 06:57:35 42° NNE
Cosmos 2082 Rocket 4.0 06:55:08 10° NNW 06:57:32 26° NNW 06:57:32 26° NNW
CZ-4C R/B 4.3 07:17:46 10° NW 07:22:22 31° WNW 07:22:22 31° WNW
Cosmos 2369 Rocket 4.2 07:32:15 23° NNE 07:32:15 23° NNE 07:34:15 10° NNE
Cosmos 1943 Rocket 4.2 07:39:19 23° NNW 07:39:19 23° NNW 07:41:51 10° N
USA 215 4.2 08:38:50 41° NNW 08:38:50 41° NNW 08:42:57 10° NW
Resurs 1-4 Rocket 4.1 08:41:18 10° NNE 08:43:35 23° NE 08:43:35 23° NE
SL-16 R/B 3.8 08:54:53 34° ENE 08:55:04 35° ENE 09:00:37 10° N
Lacrosse 5 3.8 09:06:07 26° NNE 09:06:07 26° NNE 09:08:18 10° NE
USA 281 3.5 09:17:17 62° N 09:17:17 62° N 09:22:41 10° NNW
Cosmos 1697 Rocket 4.0 09:42:37 31° E 09:42:37 31° E 09:47:15 10° NE
NPP 4.4 09:44:54 10° N 09:48:46 46° NNW 09:48:46 46° NNW
Cosmos 1980 Rocket 4.2 09:51:31 17° ESE 09:52:56 18° E 09:56:41 10° ENE
Cosmos 1932 4.5 09:55:53 77° NNW 09:55:53 77° NNW 10:01:57 10° NNE
CZ-2D R/B 3.3 09:58:16 10° N 10:01:51 33° NW 10:01:51 33° NW
Cosmos 2227 Rocket 4.0 10:01:42 10° N 10:06:34 29° ENE 10:11:25 10° ESE
Cosmos 1459 Rocket 3.8 10:00:43 10° N 10:06:59 86° W 10:06:59 86° W
Cosmos 1455 Rocket 4.2 10:03:03 10° N 10:06:13 41° NE 10:06:13 41° NE
Cosmos 1953 4.0 10:04:10 10° N 10:06:47 32° NE 10:06:47 32° NE
BREEZE-M R/B 4.1 10:05:31 35° NW 10:07:58 83° NE 10:18:39 10° SE
Cosmos 2016 Rocket 4.2 10:03:03 10° N 10:09:14 64° E 10:10:52 47° SE
Cosmos 2297 Rocket 3.3 10:04:54 10° N 10:10:16 42° ENE 10:15:35 10° SE
IDEFIX/ARIANE 42P 3.1 10:06:40 10° NNE 10:11:48 52° E 10:12:13 51° ESE
Cosmos 2173 Rocket 3.9 10:10:51 10° NNW 10:16:53 69° W 10:16:53 69° W
ADEOS II 2.4 10:16:38 10° N 10:21:12 54° NW 10:21:12 54° NW
Cosmos 2251 Rocket 3.8 10:17:55 10° N 10:23:07 64° ENE 10:24:38 44° SE
OAO 2 Rocket 4.3 10:25:22 37° SE 10:25:22 37° SE 10:29:32 10° E
OAO 3 Rocket 3.8 10:26:14 47° ESE 10:26:14 47° ESE 10:29:45 10° ESE
Resurs 1-4 Rocket 3.8 10:21:42 10° NNW 10:24:40 21° NW 10:24:40 21° NW
IRS-1D 3.7 10:22:15 10° N 10:27:23 63° WNW 10:27:23 63° WNW
CZ-4C R/B 4.0 10:29:41 56° ESE 10:30:08 59° ENE 10:34:22 10° N
Cosmos 1626 3.2 10:34:10 40° N 10:34:10 40° N 10:36:38 10° N
Cosmos 1802 Rocket 3.9 10:27:44 10° NNW 10:33:48 64° W 10:34:25 60° WSW
Cosmos 1908 4.0 10:30:52 10° N 10:33:45 48° N 10:33:45 48° N
OceanSat 1 rocket 4.4 10:31:06 10° NNE 10:35:53 85° WNW 10:35:58 84° WSW
Cosmos 2100 Rocket 4.5 10:32:06 10° NNW 10:37:44 42° W 10:37:44 42° W
SL-16 R/B 3.6 10:39:59 28° WNW 10:39:59 28° WNW 10:44:02 10° NW
ADEOS Rocket 3.4 10:34:26 26° SSE 10:38:50 87° WSW 10:46:32 10° NNW
Cosmos 2123 Rocket 4.1 10:39:20 51° WSW 10:39:57 54° W 10:45:59 10° N
Cosmos 304 Rocket 3.7 10:40:34 71° WNW 10:40:34 71° WNW 10:45:19 10° NNE
Iridium 2 4.0 10:43:00 63° ENE 10:43:00 63° ENE 10:46:36 10° N
MSX 3.8 10:40:18 10° NNE 10:46:06 81° ESE 10:48:16 41° S
Cosmos 2219 3.3 10:41:07 10° NNW 10:46:50 79° ENE 10:52:34 10° SSE
Lacrosse 5 4.1 10:45:19 12° NW 10:46:54 14° NNW 10:49:30 10° N
Meteor 1-28 Rocket 4.5 10:48:55 30° NNW 10:48:55 30° NNW 10:50:58 10° NNW
CZ-2C R/B 2.0 10:48:28 39° ENE 10:48:28 39° ENE 10:50:45 10° E
Spot 1 4.1 10:47:41 60° S 10:48:30 88° WSW 10:53:15 10° NNW
SL-14 R/B 3.2 10:52:14 79° NNW 10:52:14 79° NNW 10:55:57 10° N
Lacrosse 4 Rocket 1.4 10:52:37 72° SW 10:53:03 86° WNW 10:57:32 10° NNE
Tianhe-1 3.1 10:56:41 21° NNW 10:57:48 27° NNE 11:00:32 10° ENE
COSMOS 2455 2.7 10:52:07 10° NNW 10:58:04 67° WSW 11:04:00 10° SSE
IRS-1C 4.1 10:53:27 10° N 10:58:45 70° WNW 11:00:24 44° SW
Cosmos 1340 3.2 10:59:10 39° SE 11:00:11 53° E 11:03:50 10° NNE
Cosmos 1140 Rocket 4.4 10:57:36 10° N 11:02:39 48° ENE 11:07:41 10° SE
ARIANE 5 R/B 2.4 10:58:53 10° N 11:04:03 80° WNW 11:06:01 38° SSW
Cosmos 2360 4.5 11:05:22 39° WSW 11:07:06 53° WNW 11:12:42 10° N
Cosmos 1420 Rocket 4.2 11:08:31 26° S 11:11:29 70° ESE 11:16:39 10° NNE
Cosmos 614 Rocket 4.0 11:06:57 10° NNW 11:11:55 55° WSW 11:14:35 26° S
BREEZE-M DEB (TANK) 3.6 11:14:26 22° WNW 11:14:56 23° NW 11:17:04 10° NNE
BREEZE-M R/B 4.1 11:18:08 18° S 11:20:02 25° SE 11:23:05 10° ENE
TSX-5 3.7 11:17:44 10° NNW 11:21:24 81° WSW 11:25:58 10° SSE
CZ-2D R/B 3.6 11:19:47 10° N 11:24:08 63° WNW 11:26:14 29° SSW
Cosmos 1697 Rocket 3.7 11:24:22 24° W 11:26:15 29° WNW 11:31:06 10° N
Cosmos 405 4.2 11:24:12 10° N 11:27:34 42° E 11:30:53 10° SSE
CZ-2C R/B 2.6 11:27:42 10° NNE 11:32:51 82° ESE 11:37:58 10° S
CZ-3B R/B 2.5 11:35:09 23° SSW 11:36:05 27° SSE 11:40:46 10° ESE
Cosmos 407 Rocket 3.5 11:31:07 10° NNW 11:36:25 67° WSW 11:41:42 10° S
Cosmos 1980 Rocket 2.6 11:33:18 24° SW 11:36:27 48° WNW 11:41:56 10° N
Cosmos 1464 Rocket 4.4 11:32:08 10° N 11:38:15 64° E 11:44:23 10° SSE
Milstar 3 4.3 11:38:06 15° SSW 11:38:38 15° SSW 11:42:59 10° S
Cosmos 1606 Rocket 4.1 11:37:04 10° N 11:41:25 61° E 11:45:47 10° SSE
CZ-4B R/B 4.5 11:38:04 10° NNW 11:42:19 29° WNW 11:44:44 20° WSW
Meteor 2-10 Rocket 4.1 11:37:07 10° N 11:42:49 67° E 11:48:18 10° SSE
Timation 2 Rocket 4.4 11:37:31 10° NW 11:42:54 36° WSW 11:48:21 10° S
NOSS 3-2 (A) 4.2 11:39:05 10° S 11:44:06 43° ESE 11:49:39 10° NE
Cosmos 2278 4.2 11:44:58 19° SW 11:48:43 44° WNW 11:54:10 10° N
Cosmos 1452 Rocket 3.5 11:45:15 10° SSW 11:50:30 86° ESE 11:55:48 10° NNE
Cosmos 2227 Rocket 2.9 11:45:37 10° NW 11:50:31 31° WSW 11:55:22 10° SSW
IDEFIX/ARIANE 42P 4.3 11:47:46 10° NNW 11:50:54 16° WNW 11:53:01 13° W
Cosmos 2297 Rocket 3.4 11:49:48 10° NW 11:53:55 21° W 11:57:28 12° SW
Cosmos 1300 3.6 11:53:12 10° NNW 11:56:28 27° W 11:59:03 14° SW
